Time,TemperatureF,DewpointF,PressureIn,WindDirection,WindDirectionDegrees,WindSpeedMPH,WindSpeedGustMPH,Humidity,HourlyPrecipIn,Conditions,Clouds,dailyrainin,SoftwareType,DateUTC
2013-04-20 00:00:00,56.3,48.5,29.78,NW,324,4.0,14.0,75,0.00,,OVC044,0.23,VWS V14.01,2013-04-20 04:00:00,
2013-04-20 00:01:00,56.2,48.0,29.78,NW,306,4.0,5.0,74,0.00,,OVC055,0.00,VWS V14.01,2013-04-20 04:01:00,
2013-04-20 00:06:00,55.9,47.7,29.79,NW,315,3.0,7.0,74,0.00,,OVC055,0.00,VWS V14.01,2013-04-20 04:06:00,
2013-04-20 00:11:00,55.7,46.8,29.80,WNW,299,3.0,12.0,72,0.00,,OVC055,0.00,VWS V14.01,2013-04-20 04:11:00,
2013-04-20 00:16:00,55.4,46.5,29.82,WNW,286,3.0,12.0,72,0.00,,OVC055,0.00,VWS V14.01,2013-04-20 04:16:00,
2013-04-20 00:21:00,55.1,45.1,29.82,NW,306,4.0,12.0,69,0.00,,OVC055,0.00,VWS V14.01,2013-04-20 04:21:00,
2013-04-20 00:26:00,54.8,44.8,29.82,NW,306,2.0,13.0,69,0.00,,OVC055,0.00,VWS V14.01,2013-04-20 04:26:00,
2013-04-20 00:30:00,54.5,44.2,29.82,West,273,5.0,13.0,68,0.00,,OVC044,0.00,VWS V14.01,2013-04-20 04:30:00,
2013-04-20 00:31:00,54.4,43.7,29.82,WNW,296,2.0,11.0,67,0.00,,OVC055,0.00,VWS V14.01,2013-04-20 04:31:00,
2013-04-20 00:36:00,54.1,43.8,29.83,WNW,298,4.0,12.0,68,0.00,,OVC055,0.00,VWS V14.01,2013-04-20 04:36:00,
2013-04-20 00:41:00,54.0,42.9,29.83,NW,309,3.0,15.0,66,0.00,,OVC055,0.00,VWS V14.01,2013-04-20 04:41:00,
2013-04-20 00:46:00,53.9,43.6,29.84,NW,315,2.0,15.0,68,0.00,,OVC055,0.00,VWS V14.01,2013-04-20 04:46:00,
2013-04-20 00:51:00,53.8,43.1,29.84,WSW,241,8.0,15.0,67,0.00,,OVC055,0.00,VWS V14.01,2013-04-20 04:51:00,
2013-04-20 00:56:00,53.7,43.4,29.85,NW,319,2.0,15.0,68,0.00,,OVC055,0.00,VWS V14.01,2013-04-20 04:56:00,
2013-04-20 01:00:00,53.6,42.9,29.85,WNW,292,4.0,15.0,67,0.00,,OVC044,0.00,VWS V14.01,2013-04-20 05:00:00,
2013-04-20 01:01:00,53.5,42.4,29.85,West,281,7.0,10.0,66,0.00,,BKN050,0.00,VWS V14.01,2013-04-20 05:01:00,
2013-04-20 01:06:00,53.4,42.7,29.85,WNW,302,4.0,10.0,67,0.00,,BKN050,0.00,VWS V14.01,2013-04-20 05:06:00,
2013-04-20 01:11:00,53.2,42.2,29.86,WNW,290,5.0,13.0,66,0.00,,BKN050,0.00,VWS V14.01,2013-04-20 05:11:00,
2013-04-20 01:16:00,53.1,42.5,29.86,WNW,290,5.0,13.0,67,0.00,,BKN050,0.00,VWS V14.01,2013-04-20 05:16:00,
2013-04-20 01:21:00,52.9,41.9,29.86,West,266,8.0,13.0,66,0.00,,BKN050,0.00,VWS V14.01,2013-04-20 05:21:00,
2013-04-20 01:26:00,52.6,41.6,29.86,WNW,283,7.0,15.0,66,0.00,,BKN050,0.00,VWS V14.01,2013-04-20 05:26:00,
2013-04-20 01:30:00,52.6,41.6,29.86,NW,312,3.0,15.0,66,0.00,,OVC044,0.00,VWS V14.01,2013-04-20 05:30:00,
2013-04-20 01:31:00,52.6,41.6,29.86,West,261,3.0,3.0,66,0.00,,BKN050,0.00,VWS V14.01,2013-04-20 05:31:00,
2013-04-20 01:36:00,52.4,42.2,29.86,WNW,296,2.0,8.0,68,0.00,,BKN050,0.00,VWS V14.01,2013-04-20 05:36:00,
2013-04-20 01:41:00,52.1,41.5,29.86,SW,226,6.0,8.0,67,0.00,,BKN050,0.00,VWS V14.01,2013-04-20 05:41:00,
2013-04-20 01:46:00,52.0,41.4,29.86,North,9,6.0,8.0,67,0.00,,BKN050,0.00,VWS V14.01,2013-04-20 05:46:00,
2013-04-20 01:51:00,52.0,40.2,29.86,West,269,3.0,12.0,64,0.00,,BKN050,0.00,VWS V14.01,2013-04-20 05:51:00,
2013-04-20 01:56:00,51.8,40.0,29.87,SSW,200,6.0,15.0,64,0.00,,BKN050,0.00,VWS V14.01,2013-04-20 05:56:00,
2013-04-20 02:00:00,51.6,39.8,29.87,West,272,5.0,15.0,64,0.00,,OVC044,0.00,VWS V14.01,2013-04-20 06:00:00,
2013-04-20 02:01:00,51.5,39.3,29.87,NNW,338,5.0,15.0,63,0.00,,OVC046,0.00,VWS V14.01,2013-04-20 06:01:00,
2013-04-20 02:06:00,51.4,39.2,29.87,WNW,296,3.0,15.0,63,0.00,,OVC046,0.00,VWS V14.01,2013-04-20 06:06:00,
2013-04-20 02:11:00,51.2,39.0,29.88,NW,309,2.0,15.0,63,0.00,,OVC046,0.00,VWS V14.01,2013-04-20 06:11:00,
2013-04-20 02:16:00,51.1,39.0,29.88,WNW,303,4.0,15.0,63,0.00,,OVC046,0.00,VWS V14.01,2013-04-20 06:16:00,
2013-04-20 02:21:00,51.0,38.9,29.88,West,271,7.0,15.0,63,0.00,,OVC046,0.00,VWS V14.01,2013-04-20 06:21:00,
2013-04-20 02:26:00,50.9,38.4,29.89,WNW,302,1.0,15.0,62,0.00,,OVC046,0.00,VWS V14.01,2013-04-20 06:26:00,
2013-04-20 02:30:00,50.9,38.8,29.89,WSW,256,2.0,15.0,63,0.00,,OVC044,0.00,VWS V14.01,2013-04-20 06:30:00,
2013-04-20 02:31:00,50.8,38.3,29.89,WNW,300,3.0,10.0,62,0.00,,OVC046,0.00,VWS V14.01,2013-04-20 06:31:00,
2013-04-20 02:36:00,50.7,38.6,29.89,WSW,251,5.0,10.0,63,0.00,,OVC046,0.00,VWS V14.01,2013-04-20 06:36:00,
2013-04-20 02:41:00,50.5,38.0,29.90,NW,311,2.0,10.0,62,0.00,,OVC046,0.00,VWS V14.01,2013-04-20 06:41:00,
2013-04-20 02:46:00,50.5,38.0,29.89,NW,314,4.0,10.0,62,0.00,,OVC046,0.00,VWS V14.01,2013-04-20 06:46:00,
2013-04-20 02:51:00,50.5,37.6,29.89,NNW,345,5.0,10.0,61,0.00,,OVC046,0.00,VWS V14.01,2013-04-20 06:51:00,
2013-04-20 02:56:00,50.4,37.5,29.89,NE,56,12.0,12.0,61,0.00,,OVC046,0.00,VWS V14.01,2013-04-20 06:56:00,
2013-04-20 03:00:00,50.4,37.5,29.89,WSW,246,11.0,13.0,61,0.00,,OVC044,0.00,VWS V14.01,2013-04-20 07:00:00,
2013-04-20 03:01:00,50.4,37.0,29.89,WNW,282,5.0,12.0,60,0.00,,SCT065,0.00,VWS V14.01,2013-04-20 07:01:00,
2013-04-20 03:06:00,50.2,36.9,29.89,NE,48,4.0,14.0,60,0.00,,SCT065,0.00,VWS V14.01,2013-04-20 07:06:00,
2013-04-20 03:11:00,50.0,36.7,29.89,South,185,7.0,17.0,60,0.00,,SCT065,0.00,VWS V14.01,2013-04-20 07:11:00,
2013-04-20 03:16:00,49.9,36.6,29.90,WNW,294,3.0,17.0,60,0.00,,SCT065,0.00,VWS V14.01,2013-04-20 07:16:00,
2013-04-20 03:21:00,49.8,36.5,29.90,WNW,300,1.0,17.0,60,0.00,,SCT065,0.00,VWS V14.01,2013-04-20 07:21:00,
2013-04-20 03:26:00,49.8,36.1,29.90,WNW,296,1.0,17.0,59,0.00,,SCT065,0.00,VWS V14.01,2013-04-20 07:26:00,
2013-04-20 03:30:00,49.7,35.5,29.90,North,9,3.0,17.0,58,0.00,,OVC044,0.00,VWS V14.01,2013-04-20 07:30:00,
2013-04-20 03:31:00,49.7,35.5,29.91,WNW,292,2.0,8.0,58,0.00,,SCT065,0.00,VWS V14.01,2013-04-20 07:31:00,
2013-04-20 03:36:00,49.7,35.1,29.91,North,5,2.0,10.0,57,0.00,,SCT065,0.00,VWS V14.01,2013-04-20 07:36:00,
2013-04-20 03:41:00,49.5,35.8,29.92,SW,236,2.0,10.0,59,0.00,,SCT065,0.00,VWS V14.01,2013-04-20 07:41:00,
2013-04-20 03:46:00,49.5,35.3,29.92,WNW,294,4.0,10.0,58,0.00,,SCT065,0.00,VWS V14.01,2013-04-20 07:46:00,
2013-04-20 03:51:00,49.3,34.7,29.92,NW,304,2.0,10.0,57,0.00,,SCT065,0.00,VWS V14.01,2013-04-20 07:51:00,
2013-04-20 03:56:00,49.2,35.5,29.92,WNW,300,4.0,10.0,59,0.00,,SCT065,0.00,VWS V14.01,2013-04-20 07:56:00,
2013-04-20 04:00:00,49.1,35.0,29.92,WNW,292,3.0,10.0,58,0.00,,OVC044,0.00,VWS V14.01,2013-04-20 08:00:00,
2013-04-20 04:01:00,49.0,36.6,29.93,WSW,242,1.0,6.0,62,0.00,,FEW060,0.00,VWS V14.01,2013-04-20 08:01:00,
2013-04-20 04:06:00,48.8,35.5,29.93,West,263,4.0,6.0,60,0.00,,FEW060,0.00,VWS V14.01,2013-04-20 08:06:00,
2013-04-20 04:11:00,48.7,36.3,29.93,WSW,247,4.0,6.0,62,0.00,,FEW060,0.00,VWS V14.01,2013-04-20 08:11:00,
2013-04-20 04:16:00,48.5,36.1,29.94,WSW,246,3.0,7.0,62,0.00,,FEW060,0.00,VWS V14.01,2013-04-20 08:16:00,
2013-04-20 04:21:00,48.3,35.5,29.94,WSW,252,2.0,7.0,61,0.00,,FEW060,0.00,VWS V14.01,2013-04-20 08:21:00,
2013-04-20 04:26:00,48.2,35.0,29.94,West,269,1.0,7.0,60,0.00,,FEW060,0.00,VWS V14.01,2013-04-20 08:26:00,
2013-04-20 04:30:00,48.2,36.2,29.94,West,269,0.0,7.0,63,0.00,,OVC044,0.00,VWS V14.01,2013-04-20 08:30:00,
2013-04-20 04:31:00,48.1,35.3,29.94,West,269,0.0,0.0,61,0.00,,FEW060,0.00,VWS V14.01,2013-04-20 08:31:00,
2013-04-20 04:36:00,48.0,36.0,29.94,WNW,287,0.0,3.0,63,0.00,,FEW060,0.00,VWS V14.01,2013-04-20 08:36:00,
2013-04-20 04:41:00,47.8,36.6,29.94,NNE,15,0.0,3.0,65,0.00,,FEW060,0.00,VWS V14.01,2013-04-20 08:41:00,
2013-04-20 04:46:00,47.6,38.3,29.95,NNE,15,0.0,3.0,70,0.00,,FEW060,0.00,VWS V14.01,2013-04-20 08:46:00,
2013-04-20 04:51:00,47.3,39.1,29.95,NNE,15,0.0,3.0,73,0.00,,FEW060,0.00,VWS V14.01,2013-04-20 08:51:00,
2013-04-20 04:56:00,47.0,37.7,29.95,NW,317,2.0,3.0,70,0.00,,FEW060,0.00,VWS V14.01,2013-04-20 08:56:00,
2013-04-20 05:00:00,46.9,36.5,29.95,NW,305,0.0,3.0,67,0.00,,OVC044,0.00,VWS V14.01,2013-04-20 09:00:00,
2013-04-20 05:01:00,46.8,36.8,29.95,NW,313,2.0,3.0,68,0.00,,CLR,0.00,VWS V14.01,2013-04-20 09:01:00,
2013-04-20 05:06:00,46.9,35.8,29.95,NW,325,1.0,4.0,65,0.00,,CLR,0.00,VWS V14.01,2013-04-20 09:06:00,
2013-04-20 05:11:00,46.9,36.2,29.95,North,5,0.0,4.0,66,0.00,,CLR,0.00,VWS V14.01,2013-04-20 09:11:00,
2013-04-20 05:16:00,46.9,35.8,29.95,NNW,330,0.0,4.0,65,0.00,,CLR,0.00,VWS V14.01,2013-04-20 09:16:00,
2013-04-20 05:21:00,47.1,36.3,29.95,NNW,329,1.0,4.0,66,0.00,,CLR,0.00,VWS V14.01,2013-04-20 09:21:00,
2013-04-20 05:26:00,47.2,36.8,29.95,NW,324,0.0,6.0,67,0.00,,CLR,0.00,VWS V14.01,2013-04-20 09:26:00,
2013-04-20 05:30:00,47.1,35.6,29.95,North,355,1.0,9.0,64,0.00,,OVC044,0.00,VWS V14.01,2013-04-20 09:30:00,
2013-04-20 05:31:00,47.2,36.4,29.96,North,351,1.0,1.0,66,0.00,,CLR,0.00,VWS V14.01,2013-04-20 09:31:00,
2013-04-20 05:36:00,47.2,35.7,29.96,WNW,303,1.0,6.0,64,0.00,,CLR,0.00,VWS V14.01,2013-04-20 09:36:00,
2013-04-20 05:41:00,47.1,36.0,29.96,NW,306,0.0,6.0,65,0.00,,CLR,0.00,VWS V14.01,2013-04-20 09:41:00,
2013-04-20 05:46:00,47.1,35.6,29.96,North,355,0.0,6.0,64,0.00,,CLR,0.00,VWS V14.01,2013-04-20 09:46:00,
2013-04-20 05:51:00,47.0,35.5,29.97,North,5,0.0,6.0,64,0.00,,CLR,0.00,VWS V14.01,2013-04-20 09:51:00,
2013-04-20 05:56:00,46.9,35.4,29.97,West,281,2.0,6.0,64,0.00,,CLR,0.00,VWS V14.01,2013-04-20 09:56:00,
2013-04-20 06:00:00,46.9,35.0,29.97,NW,306,1.0,6.0,63,0.00,,OVC044,0.00,VWS V14.01,2013-04-20 10:00:00,
2013-04-20 06:01:00,46.9,35.8,29.97,NW,311,0.0,3.0,65,0.00,,CLR,0.00,VWS V14.01,2013-04-20 10:01:00,
2013-04-20 06:06:00,46.8,35.7,29.98,NW,310,1.0,3.0,65,0.00,,CLR,0.00,VWS V14.01,2013-04-20 10:06:00,
2013-04-20 06:11:00,46.7,35.2,29.98,NW,319,0.0,3.0,64,0.00,,CLR,0.00,VWS V14.01,2013-04-20 10:11:00,
2013-04-20 06:16:00,46.5,36.2,29.98,NNW,340,0.0,3.0,67,0.00,,CLR,0.00,VWS V14.01,2013-04-20 10:16:00,
2013-04-20 06:21:00,46.2,35.5,29.98,NNW,342,0.0,3.0,66,0.00,,CLR,0.00,VWS V14.01,2013-04-20 10:21:00,
2013-04-20 06:26:00,45.9,36.0,29.99,NNW,342,0.0,3.0,68,0.00,,CLR,0.00,VWS V14.01,2013-04-20 10:26:00,
2013-04-20 06:30:00,45.8,36.2,29.99,NNW,342,0.0,3.0,69,0.00,,OVC044,0.00,VWS V14.01,2013-04-20 10:30:00,
2013-04-20 06:31:00,45.7,35.8,29.99,NNW,342,0.0,0.0,68,0.00,,CLR,0.00,VWS V14.01,2013-04-20 10:31:00,
2013-04-20 06:36:00,45.3,35.7,29.99,WNW,292,0.0,5.0,69,0.00,,CLR,0.00,VWS V14.01,2013-04-20 10:36:00,
2013-04-20 06:41:00,45.0,35.1,30.00,WNW,291,0.0,5.0,68,0.00,,CLR,0.00,VWS V14.01,2013-04-20 10:41:00,
2013-04-20 06:46:00,44.7,34.8,30.00,SSW,200,0.0,5.0,68,0.00,,CLR,0.00,VWS V14.01,2013-04-20 10:46:00,
2013-04-20 06:51:00,44.6,37.5,30.00,SSW,200,0.0,5.0,76,0.00,,CLR,0.00,VWS V14.01,2013-04-20 10:51:00,
2013-04-20 06:56:00,44.3,37.6,30.01,SSW,200,0.0,5.0,77,0.00,,CLR,0.00,VWS V14.01,2013-04-20 10:56:00,
2013-04-20 07:00:00,44.1,36.7,30.01,SSW,200,0.0,5.0,75,0.00,,OVC044,0.00,VWS V14.01,2013-04-20 11:00:00,
2013-04-20 07:01:00,44.0,36.6,30.01,SSW,200,0.0,0.0,75,0.00,,CLR,0.00,VWS V14.01,2013-04-20 11:01:00,
2013-04-20 07:06:00,43.6,36.2,30.02,SSE,162,0.0,1.0,75,0.00,,CLR,0.00,VWS V14.01,2013-04-20 11:06:00,
2013-04-20 07:11:00,43.4,35.0,30.02,SSE,164,0.0,1.0,72,0.00,,CLR,0.00,VWS V14.01,2013-04-20 11:11:00,
2013-04-20 07:16:00,43.2,36.8,30.02,NE,55,1.0,2.0,78,0.00,,CLR,0.00,VWS V14.01,2013-04-20 11:16:00,
2013-04-20 07:21:00,43.3,33.8,30.02,NNW,336,1.0,5.0,69,0.00,,CLR,0.00,VWS V14.01,2013-04-20 11:21:00,
2013-04-20 07:26:00,43.8,33.9,30.03,WNW,298,0.0,5.0,68,0.00,,CLR,0.00,VWS V14.01,2013-04-20 11:26:00,
2013-04-20 07:30:00,44.0,34.5,30.03,WNW,298,1.0,5.0,69,0.00,,OVC044,0.00,VWS V14.01,2013-04-20 11:30:00,
2013-04-20 07:31:00,44.1,34.2,30.03,NW,323,1.0,3.0,68,0.00,,CLR,0.00,VWS V14.01,2013-04-20 11:31:00,
2013-04-20 07:36:00,44.2,35.0,30.04,WNW,292,0.0,3.0,70,0.00,,CLR,0.00,VWS V14.01,2013-04-20 11:36:00,
2013-04-20 07:41:00,44.3,34.4,30.05,NNW,342,0.0,3.0,68,0.00,,CLR,0.00,VWS V14.01,2013-04-20 11:41:00,
2013-04-20 07:46:00,44.4,33.0,30.05,NNW,331,1.0,4.0,64,0.00,,CLR,0.00,VWS V14.01,2013-04-20 11:46:00,
2013-04-20 07:51:00,44.8,32.2,30.05,North,355,3.0,6.0,61,0.00,,CLR,0.00,VWS V14.01,2013-04-20 11:51:00,
2013-04-20 07:56:00,45.1,31.2,30.06,WNW,286,4.0,6.0,58,0.00,,CLR,0.00,VWS V14.01,2013-04-20 11:56:00,
2013-04-20 08:00:00,45.2,31.3,30.05,NW,321,5.0,6.0,58,0.00,,OVC044,0.00,VWS V14.01,2013-04-20 12:00:00,
2013-04-20 08:01:00,45.4,30.2,30.06,WNW,297,3.0,6.0,55,0.00,,CLR,0.00,VWS V14.01,2013-04-20 12:01:00,
2013-04-20 08:06:00,45.8,31.5,30.06,NW,313,1.0,6.0,57,0.00,,CLR,0.00,VWS V14.01,2013-04-20 12:06:00,
2013-04-20 08:11:00,46.1,31.3,30.06,NNW,328,1.0,6.0,56,0.00,,CLR,0.00,VWS V14.01,2013-04-20 12:11:00,
2013-04-20 08:16:00,46.4,31.1,30.07,North,355,3.0,8.0,55,0.00,,CLR,0.00,VWS V14.01,2013-04-20 12:16:00,
2013-04-20 08:21:00,46.7,31.9,30.07,WNW,286,0.0,8.0,56,0.00,,CLR,0.00,VWS V14.01,2013-04-20 12:21:00,
2013-04-20 08:26:00,47.0,33.0,30.07,NNW,332,0.0,8.0,58,0.00,,CLR,0.00,VWS V14.01,2013-04-20 12:26:00,
2013-04-20 08:30:00,47.4,33.8,30.07,WNW,295,0.0,9.0,59,0.00,,OVC044,0.00,VWS V14.01,2013-04-20 12:30:00,
2013-04-20 08:31:00,47.5,33.0,30.07,NNW,344,1.0,2.0,57,0.00,,CLR,0.00,VWS V14.01,2013-04-20 12:31:00,
2013-04-20 08:36:00,47.7,31.0,30.08,NW,321,4.0,8.0,52,0.00,,CLR,0.00,VWS V14.01,2013-04-20 12:36:00,
2013-04-20 08:41:00,47.7,31.0,30.08,WNW,285,3.0,10.0,52,0.00,,CLR,0.00,VWS V14.01,2013-04-20 12:41:00,
2013-04-20 08:46:00,47.8,31.5,30.08,North,5,2.0,10.0,53,0.00,,CLR,0.00,VWS V14.01,2013-04-20 12:46:00,
2013-04-20 08:51:00,47.8,30.1,30.08,NNW,348,2.0,10.0,50,0.00,,CLR,0.00,VWS V14.01,2013-04-20 12:51:00,
2013-04-20 08:56:00,47.9,31.6,30.08,NNW,344,8.0,10.0,53,0.00,,CLR,0.00,VWS V14.01,2013-04-20 12:56:00,
2013-04-20 09:00:00,48.0,32.2,30.08,NW,323,4.0,10.0,54,0.00,,OVC044,0.00,VWS V14.01,2013-04-20 13:00:00,
2013-04-20 09:01:00,48.0,30.8,30.08,NNW,332,2.0,4.0,51,0.00,,CLR,0.00,VWS V14.01,2013-04-20 13:01:00,
2013-04-20 09:06:00,48.2,31.9,30.08,North,360,3.0,8.0,53,0.00,,CLR,0.00,VWS V14.01,2013-04-20 13:06:00,
2013-04-20 09:11:00,48.5,32.2,30.08,North,5,3.0,8.0,53,0.00,,CLR,0.00,VWS V14.01,2013-04-20 13:11:00,
2013-04-20 09:16:00,48.9,33.0,30.08,NW,319,4.0,8.0,54,0.00,,CLR,0.00,VWS V14.01,2013-04-20 13:16:00,
2013-04-20 09:21:00,49.3,32.9,30.09,NNW,333,2.0,8.0,53,0.00,,CLR,0.00,VWS V14.01,2013-04-20 13:21:00,
2013-04-20 09:26:00,49.7,32.8,30.09,West,263,3.0,8.0,52,0.00,,CLR,0.00,VWS V14.01,2013-04-20 13:26:00,
2013-04-20 09:30:00,49.9,31.0,30.09,West,272,6.0,8.0,48,0.00,,OVC044,0.00,VWS V14.01,2013-04-20 13:30:00,
2013-04-20 09:31:00,49.9,32.0,30.09,NW,324,2.0,6.0,50,0.00,,CLR,0.00,VWS V14.01,2013-04-20 13:31:00,
2013-04-20 09:36:00,49.9,31.5,30.09,NW,321,2.0,7.0,49,0.00,,CLR,0.00,VWS V14.01,2013-04-20 13:36:00,
2013-04-20 09:41:00,49.9,33.5,30.09,NW,321,4.0,7.0,53,0.00,,CLR,0.00,VWS V14.01,2013-04-20 13:41:00,
2013-04-20 09:46:00,50.1,32.2,30.09,WSW,256,4.0,11.0,50,0.00,,CLR,0.00,VWS V14.01,2013-04-20 13:46:00,
2013-04-20 09:51:00,50.6,34.6,30.09,NW,310,2.0,11.0,54,0.00,,CLR,0.00,VWS V14.01,2013-04-20 13:51:00,
2013-04-20 09:56:00,51.0,33.5,30.10,NNW,342,3.0,11.0,51,0.00,,CLR,0.00,VWS V14.01,2013-04-20 13:56:00,
2013-04-20 10:00:00,50.9,33.9,30.10,NW,311,2.0,11.0,52,0.00,,OVC044,0.00,VWS V14.01,2013-04-20 14:00:00,
2013-04-20 10:01:00,51.1,34.1,30.10,NW,320,4.0,5.0,52,0.00,,CLR,0.00,VWS V14.01,2013-04-20 14:01:00,
2013-04-20 10:06:00,51.4,31.9,30.10,NNE,18,4.0,6.0,47,0.00,,CLR,0.00,VWS V14.01,2013-04-20 14:06:00,
2013-04-20 10:11:00,51.4,32.9,30.10,North,355,4.0,7.0,49,0.00,,CLR,0.00,VWS V14.01,2013-04-20 14:11:00,
2013-04-20 10:16:00,51.3,31.2,30.11,West,263,6.0,7.0,46,0.00,,CLR,0.00,VWS V14.01,2013-04-20 14:16:00,
2013-04-20 10:22:00,51.4,32.9,30.11,North,355,4.0,7.0,49,0.00,,CLR,0.00,VWS V14.01,2013-04-20 14:22:00,
2013-04-20 10:27:00,51.6,33.6,30.11,NNW,331,4.0,9.0,50,0.00,,CLR,0.00,VWS V14.01,2013-04-20 14:27:00,
2013-04-20 10:30:00,51.7,31.6,30.11,SSW,207,1.0,9.0,46,0.00,,OVC044,0.00,VWS V14.01,2013-04-20 14:30:00,
2013-04-20 10:32:00,51.8,32.8,30.11,NW,321,5.0,6.0,48,0.00,,CLR,0.00,VWS V14.01,2013-04-20 14:32:00,
2013-04-20 10:37:00,51.8,31.1,30.11,NW,319,2.0,10.0,45,0.00,,CLR,0.00,VWS V14.01,2013-04-20 14:37:00,
2013-04-20 10:42:00,52.3,35.2,30.11,WNW,288,2.0,10.0,52,0.00,,CLR,0.00,VWS V14.01,2013-04-20 14:42:00,
2013-04-20 10:47:00,52.7,35.6,30.11,NNW,327,3.0,10.0,52,0.00,,CLR,0.00,VWS V14.01,2013-04-20 14:47:00,
2013-04-20 10:52:00,53.1,34.0,30.11,NNW,328,6.0,10.0,48,0.00,,CLR,0.00,VWS V14.01,2013-04-20 14:52:00,
2013-04-20 10:57:00,53.2,33.0,30.12,NNW,338,6.0,10.0,46,0.00,,CLR,0.00,VWS V14.01,2013-04-20 14:57:00,
2013-04-20 11:00:00,53.2,33.0,30.12,NW,309,4.0,10.0,46,0.00,,OVC044,0.00,VWS V14.01,2013-04-20 15:00:00,
2013-04-20 11:02:00,53.1,32.9,30.12,NNW,343,2.0,8.0,46,0.00,,CLR,0.00,VWS V14.01,2013-04-20 15:02:00,
2013-04-20 11:07:00,53.3,32.0,30.12,NNW,330,1.0,8.0,44,0.00,,CLR,0.00,VWS V14.01,2013-04-20 15:07:00,
2013-04-20 11:12:00,53.7,34.0,30.12,NW,308,3.0,9.0,47,0.00,,CLR,0.00,VWS V14.01,2013-04-20 15:12:00,
2013-04-20 11:17:00,54.1,34.9,30.12,NNE,12,2.0,9.0,48,0.00,,CLR,0.00,VWS V14.01,2013-04-20 15:17:00,
2013-04-20 11:22:00,54.3,32.9,30.12,NNW,346,3.0,12.0,44,0.00,,CLR,0.00,VWS V14.01,2013-04-20 15:22:00,
2013-04-20 11:27:00,54.7,34.3,30.12,West,267,3.0,12.0,46,0.00,,CLR,0.00,VWS V14.01,2013-04-20 15:27:00,
2013-04-20 11:30:00,54.9,36.6,30.12,West,281,2.0,12.0,50,0.00,,OVC044,0.00,VWS V14.01,2013-04-20 15:30:00,
2013-04-20 11:32:00,55.3,34.9,30.12,NW,312,3.0,6.0,46,0.00,,CLR,0.00,VWS V14.01,2013-04-20 15:32:00,
2013-04-20 11:37:00,55.5,34.5,30.12,WNW,300,4.0,7.0,45,0.00,,CLR,0.00,VWS V14.01,2013-04-20 15:37:00,
2013-04-20 11:42:00,55.4,33.3,30.12,NW,306,4.0,7.0,43,0.00,,CLR,0.00,VWS V14.01,2013-04-20 15:42:00,
2013-04-20 11:47:00,55.1,32.4,30.12,West,260,5.0,12.0,42,0.00,,CLR,0.00,VWS V14.01,2013-04-20 15:47:00,
2013-04-20 11:52:00,55.2,35.3,30.11,NNE,17,1.0,12.0,47,0.00,,CLR,0.00,VWS V14.01,2013-04-20 15:52:00,
2013-04-20 11:57:00,55.6,32.9,30.12,NNW,338,2.0,12.0,42,0.00,,CLR,0.00,VWS V14.01,2013-04-20 15:57:00,
2013-04-20 12:00:00,55.7,34.1,30.12,North,360,2.0,12.0,44,0.00,,OVC044,0.00,VWS V14.01,2013-04-20 16:00:00,
2013-04-20 12:02:00,55.8,34.2,30.12,North,350,1.0,3.0,44,0.00,,CLR,0.00,VWS V14.01,2013-04-20 16:02:00,
2013-04-20 12:07:00,56.3,37.4,30.12,WNW,283,4.0,8.0,49,0.00,,CLR,0.00,VWS V14.01,2013-04-20 16:07:00,
2013-04-20 12:12:00,56.2,31.6,30.11,WSW,240,9.0,17.0,39,0.00,,CLR,0.00,VWS V14.01,2013-04-20 16:12:00,
2013-04-20 12:17:00,55.6,32.9,30.11,WNW,291,4.0,17.0,42,0.00,,CLR,0.00,VWS V14.01,2013-04-20 16:17:00,
2013-04-20 12:22:00,56.0,33.2,30.11,North,355,1.0,17.0,42,0.00,,CLR,0.00,VWS V14.01,2013-04-20 16:22:00,
2013-04-20 12:27:00,56.2,35.7,30.11,NNW,346,1.0,17.0,46,0.00,,CLR,0.00,VWS V14.01,2013-04-20 16:27:00,
2013-04-20 12:30:00,56.3,31.7,30.11,East,90,3.0,17.0,39,0.00,,OVC044,0.00,VWS V14.01,2013-04-20 16:30:00,
2013-04-20 12:32:00,56.2,34.0,30.11,NW,309,6.0,8.0,43,0.00,,CLR,0.00,VWS V14.01,2013-04-20 16:32:00,
2013-04-20 12:37:00,56.3,33.5,30.11,WSW,244,3.0,9.0,42,0.00,,CLR,0.00,VWS V14.01,2013-04-20 16:37:00,
2013-04-20 12:42:00,56.6,36.6,30.11,WSW,257,4.0,9.0,47,0.00,,CLR,0.00,VWS V14.01,2013-04-20 16:42:00,
2013-04-20 12:47:00,57.1,36.0,30.11,North,350,1.0,9.0,45,0.00,,CLR,0.00,VWS V14.01,2013-04-20 16:47:00,
2013-04-20 12:52:00,57.4,35.7,30.11,WNW,285,4.0,11.0,44,0.00,,CLR,0.00,VWS V14.01,2013-04-20 16:52:00,
2013-04-20 12:57:00,57.4,31.4,30.11,NW,313,0.0,11.0,37,0.00,,CLR,0.00,VWS V14.01,2013-04-20 16:57:00,
2013-04-20 13:00:00,57.3,35.6,30.11,SW,231,3.0,11.0,44,0.00,,OVC044,0.00,VWS V14.01,2013-04-20 17:00:00,
2013-04-20 13:02:00,57.4,36.8,30.10,West,269,8.0,9.0,46,0.00,,CLR,0.00,VWS V14.01,2013-04-20 17:02:00,
2013-04-20 13:07:00,57.4,35.1,30.10,WNW,285,3.0,9.0,43,0.00,,CLR,0.00,VWS V14.01,2013-04-20 17:07:00,
2013-04-20 13:12:00,57.8,36.0,30.10,WNW,290,5.0,9.0,44,0.00,,CLR,0.00,VWS V14.01,2013-04-20 17:12:00,
2013-04-20 13:17:00,58.1,35.7,30.10,North,11,3.0,9.0,43,0.00,,CLR,0.00,VWS V14.01,2013-04-20 17:17:00,
2013-04-20 13:22:00,58.4,32.2,30.10,NW,323,3.0,9.0,37,0.00,,CLR,0.00,VWS V14.01,2013-04-20 17:22:00,
2013-04-20 13:27:00,58.3,34.1,30.10,WNW,292,2.0,9.0,40,0.00,,CLR,0.00,VWS V14.01,2013-04-20 17:27:00,
2013-04-20 13:30:00,58.4,33.6,30.10,NNE,13,3.0,9.0,39,0.00,,OVC044,0.00,VWS V14.01,2013-04-20 17:30:00,
2013-04-20 13:32:00,58.4,32.9,30.10,North,355,2.0,4.0,38,0.00,,CLR,0.00,VWS V14.01,2013-04-20 17:32:00,
2013-04-20 13:37:00,58.1,33.9,30.10,NW,307,0.0,5.0,40,0.00,,CLR,0.00,VWS V14.01,2013-04-20 17:37:00,
2013-04-20 13:42:00,58.4,34.8,30.10,NNW,331,2.0,7.0,41,0.00,,CLR,0.00,VWS V14.01,2013-04-20 17:42:00,
2013-04-20 13:47:00,58.6,35.0,30.10,NW,322,2.0,9.0,41,0.00,,CLR,0.00,VWS V14.01,2013-04-20 17:47:00,
2013-04-20 13:52:00,59.1,37.2,30.10,North,5,2.0,9.0,44,0.00,,CLR,0.00,VWS V14.01,2013-04-20 17:52:00,
2013-04-20 13:57:00,59.3,35.0,30.10,NW,314,1.0,9.0,40,0.00,,CLR,0.00,VWS V14.01,2013-04-20 17:57:00,
2013-04-20 14:00:00,59.2,32.3,30.10,ENE,65,2.0,9.0,36,0.00,,OVC044,0.00,VWS V14.01,2013-04-20 18:00:00,
2013-04-20 14:02:00,59.0,31.4,30.10,SW,236,3.0,3.0,35,0.00,,CLR,0.00,VWS V14.01,2013-04-20 18:02:00,
2013-04-20 14:07:00,58.4,31.6,30.10,SW,229,0.0,5.0,36,0.00,,CLR,0.00,VWS V14.01,2013-04-20 18:07:00,
2013-04-20 14:12:00,58.9,35.3,30.10,NW,304,1.0,7.0,41,0.00,,CLR,0.00,VWS V14.01,2013-04-20 18:12:00,
2013-04-20 14:17:00,59.6,36.5,30.10,West,271,2.0,9.0,42,0.00,,CLR,0.00,VWS V14.01,2013-04-20 18:17:00,
2013-04-20 14:22:00,60.1,37.5,30.10,NNE,27,1.0,9.0,43,0.00,,CLR,0.00,VWS V14.01,2013-04-20 18:22:00,
2013-04-20 14:27:00,60.5,36.7,30.10,NNW,331,4.0,9.0,41,0.00,,CLR,0.00,VWS V14.01,2013-04-20 18:27:00,
2013-04-20 14:30:00,60.6,34.2,30.10,WNW,293,2.0,9.0,37,0.00,,OVC044,0.00,VWS V14.01,2013-04-20 18:30:00,
2013-04-20 14:32:00,60.6,35.5,30.10,North,9,5.0,7.0,39,0.00,,CLR,0.00,VWS V14.01,2013-04-20 18:32:00,
2013-04-20 14:37:00,60.4,35.3,30.10,NNW,338,2.0,7.0,39,0.00,,CLR,0.00,VWS V14.01,2013-04-20 18:37:00,
2013-04-20 14:42:00,60.5,33.4,30.10,North,5,2.0,7.0,36,0.00,,CLR,0.00,VWS V14.01,2013-04-20 18:42:00,
2013-04-20 14:47:00,60.9,38.3,30.10,SW,232,1.0,7.0,43,0.00,,CLR,0.00,VWS V14.01,2013-04-20 18:47:00,
2013-04-20 14:52:00,61.4,36.2,30.10,WNW,288,6.0,7.0,39,0.00,,CLR,0.00,VWS V14.01,2013-04-20 18:52:00,
2013-04-20 14:57:00,60.5,36.1,30.10,SSW,198,6.0,13.0,40,0.00,,CLR,0.00,VWS V14.01,2013-04-20 18:57:00,
2013-04-20 15:00:00,60.4,34.7,30.10,SW,223,7.0,13.0,38,0.00,,OVC044,0.00,VWS V14.01,2013-04-20 19:00:00,
2013-04-20 15:02:00,60.3,32.6,30.10,SW,219,2.0,7.0,35,0.00,,CLR,0.00,VWS V14.01,2013-04-20 19:02:00,
2013-04-20 15:07:00,60.5,36.7,30.10,WSW,254,2.0,7.0,41,0.00,,CLR,0.00,VWS V14.01,2013-04-20 19:07:00,
2013-04-20 15:12:00,61.4,37.5,30.09,WNW,298,2.0,7.0,41,0.00,,CLR,0.00,VWS V14.01,2013-04-20 19:12:00,
2013-04-20 15:17:00,61.6,38.3,30.09,West,265,4.0,7.0,42,0.00,,CLR,0.00,VWS V14.01,2013-04-20 19:17:00,
2013-04-20 15:22:00,62.2,38.8,30.09,WNW,292,3.0,7.0,42,0.00,,CLR,0.00,VWS V14.01,2013-04-20 19:22:00,
2013-04-20 15:27:00,62.5,38.5,30.09,West,274,2.0,7.0,41,0.00,,CLR,0.00,VWS V14.01,2013-04-20 19:27:00,
2013-04-20 15:30:00,62.5,37.9,30.10,North,355,1.0,7.0,40,0.00,,OVC044,0.00,VWS V14.01,2013-04-20 19:30:00,
2013-04-20 15:32:00,62.6,36.0,30.10,North,5,1.0,2.0,37,0.00,,CLR,0.00,VWS V14.01,2013-04-20 19:32:00,
2013-04-20 15:37:00,62.2,33.5,30.10,South,182,2.0,8.0,34,0.00,,CLR,0.00,VWS V14.01,2013-04-20 19:37:00,
2013-04-20 15:42:00,61.9,32.5,30.10,WSW,239,7.0,10.0,33,0.00,,CLR,0.00,VWS V14.01,2013-04-20 19:42:00,
2013-04-20 15:48:00,61.7,33.8,30.09,South,188,2.0,10.0,35,0.00,,CLR,0.00,VWS V14.01,2013-04-20 19:48:00,
2013-04-20 15:53:00,61.8,37.2,30.09,NNW,346,3.0,10.0,40,0.00,,CLR,0.00,VWS V14.01,2013-04-20 19:53:00,
2013-04-20 15:58:00,61.7,35.2,30.09,NW,317,3.0,10.0,37,0.00,,CLR,0.00,VWS V14.01,2013-04-20 19:58:00,
2013-04-20 16:00:00,61.8,33.2,30.09,WSW,244,3.0,10.0,34,0.00,,OVC044,0.00,VWS V14.01,2013-04-20 20:00:00,
2013-04-20 16:03:00,61.5,32.9,30.09,WSW,242,3.0,9.0,34,0.00,,CLR,0.00,VWS V14.01,2013-04-20 20:03:00,
2013-04-20 16:08:00,61.6,33.7,30.09,SSW,205,6.0,9.0,35,0.00,,CLR,0.00,VWS V14.01,2013-04-20 20:08:00,
2013-04-20 16:13:00,61.8,34.6,30.09,SW,232,2.0,9.0,36,0.00,,CLR,0.00,VWS V14.01,2013-04-20 20:13:00,
2013-04-20 16:18:00,61.6,33.7,30.09,SW,226,6.0,9.0,35,0.00,,CLR,0.00,VWS V14.01,2013-04-20 20:18:00,
2013-04-20 16:23:00,62.0,34.8,30.09,SW,214,5.0,9.0,36,0.00,,CLR,0.00,VWS V14.01,2013-04-20 20:23:00,
2013-04-20 16:28:00,62.6,36.0,30.09,North,9,0.0,9.0,37,0.00,,CLR,0.00,VWS V14.01,2013-04-20 20:28:00,
2013-04-20 16:30:00,62.8,35.5,30.09,North,9,0.0,9.0,36,0.00,,OVC044,0.00,VWS V14.01,2013-04-20 20:30:00,
2013-04-20 16:33:00,63.3,34.5,30.09,West,265,4.0,4.0,34,0.00,,CLR,0.00,VWS V14.01,2013-04-20 20:33:00,
2013-04-20 16:38:00,63.1,32.8,30.09,NNW,336,2.0,6.0,32,0.00,,CLR,0.00,VWS V14.01,2013-04-20 20:38:00,
2013-04-20 16:43:00,63.1,34.3,30.09,NNW,338,1.0,6.0,34,0.00,,CLR,0.00,VWS V14.01,2013-04-20 20:43:00,
2013-04-20 16:48:00,63.1,33.6,30.10,West,266,2.0,6.0,33,0.00,,CLR,0.00,VWS V14.01,2013-04-20 20:48:00,
2013-04-20 16:53:00,63.3,36.6,30.10,NW,323,1.0,6.0,37,0.00,,CLR,0.00,VWS V14.01,2013-04-20 20:53:00,
2013-04-20 16:58:00,63.6,35.5,30.10,North,5,0.0,6.0,35,0.00,,CLR,0.00,VWS V14.01,2013-04-20 20:58:00,
2013-04-20 17:00:00,63.6,37.5,30.10,North,5,2.0,6.0,38,0.00,,OVC044,0.00,VWS V14.01,2013-04-20 21:00:00,
2013-04-20 17:03:00,63.7,36.3,30.10,NNE,22,1.0,5.0,36,0.00,,CLR,0.00,VWS V14.01,2013-04-20 21:03:00,
2013-04-20 17:08:00,63.9,35.7,30.10,NNE,15,2.0,5.0,35,0.00,,CLR,0.00,VWS V14.01,2013-04-20 21:08:00,
2013-04-20 17:13:00,64.2,34.5,30.10,NW,316,2.0,5.0,33,0.00,,CLR,0.00,VWS V14.01,2013-04-20 21:13:00,
2013-04-20 17:18:00,64.0,32.8,30.10,SSW,212,3.0,5.0,31,0.00,,CLR,0.00,VWS V14.01,2013-04-20 21:18:00,
2013-04-20 17:23:00,64.0,35.8,30.10,SW,228,3.0,5.0,35,0.00,,CLR,0.00,VWS V14.01,2013-04-20 21:23:00,
2013-04-20 17:28:00,63.7,34.1,30.11,SW,232,2.0,6.0,33,0.00,,CLR,0.00,VWS V14.01,2013-04-20 21:28:00,
2013-04-20 17:30:00,63.7,37.0,30.11,West,265,1.0,6.0,37,0.00,,OVC044,0.00,VWS V14.01,2013-04-20 21:30:00,
2013-04-20 17:33:00,63.8,37.0,30.11,NNW,348,1.0,3.0,37,0.00,,CLR,0.00,VWS V14.01,2013-04-20 21:33:00,
2013-04-20 17:38:00,64.0,37.9,30.11,West,277,2.0,3.0,38,0.00,,CLR,0.00,VWS V14.01,2013-04-20 21:38:00,
2013-04-20 17:43:00,63.9,34.3,30.11,NW,313,0.0,4.0,33,0.00,,CLR,0.00,VWS V14.01,2013-04-20 21:43:00,
2013-04-20 17:48:00,64.1,37.3,30.11,North,9,1.0,5.0,37,0.00,,CLR,0.00,VWS V14.01,2013-04-20 21:48:00,
2013-04-20 17:53:00,63.6,33.2,30.11,WNW,283,5.0,8.0,32,0.00,,CLR,0.00,VWS V14.01,2013-04-20 21:53:00,
2013-04-20 17:58:00,63.0,34.2,30.11,WSW,256,3.0,8.0,34,0.00,,CLR,0.00,VWS V14.01,2013-04-20 21:58:00,
2013-04-20 18:00:00,62.8,31.7,30.11,West,262,2.0,8.0,31,0.00,,OVC044,0.00,VWS V14.01,2013-04-20 22:00:00,
2013-04-20 18:03:00,62.9,32.6,30.11,West,279,1.0,2.0,32,0.00,,CLR,0.00,VWS V14.01,2013-04-20 22:03:00,
2013-04-20 18:08:00,63.2,35.1,30.12,WNW,283,1.0,2.0,35,0.00,,CLR,0.00,VWS V14.01,2013-04-20 22:08:00,
2013-04-20 18:13:00,63.2,33.6,30.12,West,266,0.0,2.0,33,0.00,,CLR,0.00,VWS V14.01,2013-04-20 22:13:00,
2013-04-20 18:18:00,63.4,34.6,30.12,NNW,327,1.0,2.0,34,0.00,,CLR,0.00,VWS V14.01,2013-04-20 22:18:00,
2013-04-20 18:23:00,63.6,34.0,30.12,NW,326,0.0,2.0,33,0.00,,CLR,0.00,VWS V14.01,2013-04-20 22:23:00,
2013-04-20 18:28:00,63.6,34.0,30.12,NW,322,1.0,3.0,33,0.00,,CLR,0.00,VWS V14.01,2013-04-20 22:28:00,
2013-04-20 18:30:00,63.6,33.2,30.12,North,355,1.0,4.0,32,0.00,,OVC044,0.00,VWS V14.01,2013-04-20 22:30:00,
2013-04-20 18:33:00,63.5,35.4,30.12,NW,324,0.0,2.0,35,0.00,,CLR,0.00,VWS V14.01,2013-04-20 22:33:00,
2013-04-20 18:38:00,63.4,33.8,30.12,NW,315,0.0,2.0,33,0.00,,CLR,0.00,VWS V14.01,2013-04-20 22:38:00,
2013-04-20 18:43:00,63.4,38.7,30.12,WNW,292,0.0,2.0,40,0.00,,CLR,0.00,VWS V14.01,2013-04-20 22:43:00,
2013-04-20 18:48:00,63.5,37.5,30.13,North,11,1.0,2.0,38,0.00,,CLR,0.00,VWS V14.01,2013-04-20 22:48:00,
2013-04-20 18:53:00,63.1,34.3,30.13,NNW,342,0.0,3.0,34,0.00,,CLR,0.00,VWS V14.01,2013-04-20 22:53:00,
2013-04-20 18:58:00,62.9,35.6,30.13,NNW,346,0.0,3.0,36,0.00,,CLR,0.00,VWS V14.01,2013-04-20 22:58:00,
2013-04-20 19:00:00,62.8,36.2,30.13,NNW,345,0.0,3.0,37,0.00,,OVC044,0.00,VWS V14.01,2013-04-20 23:00:00,
2013-04-20 19:03:00,62.8,36.2,30.13,North,5,1.0,2.0,37,0.00,,CLR,0.00,VWS V14.01,2013-04-20 23:03:00,
2013-04-20 19:08:00,62.5,34.5,30.13,North,360,0.0,2.0,35,0.00,,CLR,0.00,VWS V14.01,2013-04-20 23:08:00,
2013-04-20 19:13:00,62.2,38.2,30.14,WNW,300,2.0,2.0,41,0.00,,CLR,0.00,VWS V14.01,2013-04-20 23:13:00,
2013-04-20 19:18:00,61.8,36.6,30.14,WNW,300,0.0,2.0,39,0.00,,CLR,0.00,VWS V14.01,2013-04-20 23:18:00,
2013-04-20 19:23:00,61.5,35.7,30.14,WNW,300,0.0,2.0,38,0.00,,CLR,0.00,VWS V14.01,2013-04-20 23:23:00,
2013-04-20 19:28:00,60.7,35.0,30.14,WNW,300,0.0,2.0,38,0.00,,CLR,0.00,VWS V14.01,2013-04-20 23:28:00,
2013-04-20 19:30:00,60.5,35.4,30.14,WNW,300,0.0,2.0,39,0.00,,OVC044,0.00,VWS V14.01,2013-04-20 23:30:00,
2013-04-20 19:33:00,59.7,36.6,30.15,WNW,300,0.0,0.0,42,0.00,,CLR,0.00,VWS V14.01,2013-04-20 23:33:00,
2013-04-20 19:38:00,58.8,36.4,30.15,WNW,300,0.0,0.0,43,0.00,,CLR,0.00,VWS V14.01,2013-04-20 23:38:00,
2013-04-20 19:43:00,57.9,37.8,30.15,NW,305,0.0,0.0,47,0.00,,CLR,0.00,VWS V14.01,2013-04-20 23:43:00,
2013-04-20 19:48:00,57.1,37.1,30.15,NW,305,0.0,0.0,47,0.00,,CLR,0.00,VWS V14.01,2013-04-20 23:48:00,
2013-04-20 19:53:00,56.6,37.2,30.16,NW,305,0.0,0.0,48,0.00,,CLR,0.00,VWS V14.01,2013-04-20 23:53:00,
2013-04-20 19:58:00,56.0,34.4,30.16,NW,305,0.0,0.0,44,0.00,,CLR,0.00,VWS V14.01,2013-04-20 23:58:00,
2013-04-20 20:00:00,55.9,35.4,30.16,NW,305,0.0,0.0,46,0.00,,OVC044,0.00,VWS V14.01,2013-04-21 00:00:00,
2013-04-20 20:03:00,55.6,35.7,30.16,NW,305,0.0,0.0,47,0.00,,CLR,0.00,VWS V14.01,2013-04-21 00:03:00,
2013-04-20 20:08:00,55.1,37.3,30.17,NW,305,0.0,0.0,51,0.00,,CLR,0.00,VWS V14.01,2013-04-21 00:08:00,
2013-04-20 20:13:00,54.6,40.1,30.17,NW,305,0.0,0.0,58,0.00,,CLR,0.00,VWS V14.01,2013-04-21 00:13:00,
2013-04-20 20:18:00,54.1,38.8,30.17,NW,305,0.0,0.0,56,0.00,,CLR,0.00,VWS V14.01,2013-04-21 00:18:00,
2013-04-20 20:23:00,53.6,38.8,30.18,NW,305,0.0,0.0,57,0.00,,CLR,0.00,VWS V14.01,2013-04-21 00:23:00,
2013-04-20 20:28:00,53.1,39.6,30.18,NW,305,0.0,0.0,60,0.00,,CLR,0.00,VWS V14.01,2013-04-21 00:28:00,
2013-04-20 20:30:00,53.0,39.5,30.18,NW,305,0.0,0.0,60,0.00,,OVC044,0.00,VWS V14.01,2013-04-21 00:30:00,
2013-04-20 20:33:00,52.5,38.2,30.19,NW,305,0.0,0.0,58,0.00,,CLR,0.00,VWS V14.01,2013-04-21 00:33:00,
2013-04-20 20:38:00,51.9,37.2,30.19,NW,305,0.0,0.0,57,0.00,,CLR,0.00,VWS V14.01,2013-04-21 00:38:00,
2013-04-20 20:43:00,51.4,36.7,30.19,NW,305,0.0,0.0,57,0.00,,CLR,0.00,VWS V14.01,2013-04-21 00:43:00,
2013-04-20 20:48:00,50.9,37.5,30.20,NW,305,0.0,0.0,60,0.00,,CLR,0.00,VWS V14.01,2013-04-21 00:48:00,
2013-04-20 20:53:00,50.5,38.0,30.20,NW,305,0.0,0.0,62,0.00,,CLR,0.00,VWS V14.01,2013-04-21 00:53:00,
2013-04-20 20:58:00,50.1,38.0,30.21,NW,305,0.0,0.0,63,0.00,,CLR,0.00,VWS V14.01,2013-04-21 00:58:00,
2013-04-20 21:00:00,50.0,37.9,30.21,NW,305,0.0,0.0,63,0.00,,OVC044,0.00,VWS V14.01,2013-04-21 01:00:00,
2013-04-20 21:03:00,49.6,37.1,30.21,NW,305,0.0,0.0,62,0.00,,CLR,0.00,VWS V14.01,2013-04-21 01:03:00,
2013-04-20 21:08:00,49.2,38.0,30.22,NW,305,0.0,0.0,65,0.00,,CLR,0.00,VWS V14.01,2013-04-21 01:08:00,
2013-04-20 21:13:00,48.9,38.1,30.22,NW,305,0.0,0.0,66,0.00,,CLR,0.00,VWS V14.01,2013-04-21 01:13:00,
2013-04-20 21:18:00,48.5,39.9,30.23,NW,305,0.0,0.0,72,0.00,,CLR,0.00,VWS V14.01,2013-04-21 01:18:00,
2013-04-20 21:23:00,47.9,39.0,30.23,NW,305,0.0,0.0,71,0.00,,CLR,0.00,VWS V14.01,2013-04-21 01:23:00,
2013-04-20 21:28:00,47.5,37.5,30.24,NW,305,0.0,0.0,68,0.00,,CLR,0.00,VWS V14.01,2013-04-21 01:28:00,
2013-04-20 21:30:00,47.4,37.4,30.24,NW,305,0.0,0.0,68,0.00,,OVC044,0.00,VWS V14.01,2013-04-21 01:30:00,
2013-04-20 21:33:00,47.1,37.5,30.24,NW,305,0.0,0.0,69,0.00,,CLR,0.00,VWS V14.01,2013-04-21 01:33:00,
2013-04-20 21:38:00,46.9,38.4,30.24,NW,305,0.0,0.0,72,0.00,,CLR,0.00,VWS V14.01,2013-04-21 01:38:00,
2013-04-20 21:43:00,46.6,38.1,30.24,NW,305,0.0,0.0,72,0.00,,CLR,0.00,VWS V14.01,2013-04-21 01:43:00,
2013-04-20 21:48:00,46.4,39.3,30.24,NW,305,0.0,0.0,76,0.00,,CLR,0.00,VWS V14.01,2013-04-21 01:48:00,
2013-04-20 21:53:00,46.0,39.5,30.25,NW,305,0.0,0.0,78,0.00,,CLR,0.00,VWS V14.01,2013-04-21 01:53:00,
2013-04-20 21:58:00,45.7,38.6,30.24,NW,305,0.0,0.0,76,0.00,,CLR,0.00,VWS V14.01,2013-04-21 01:58:00,
2013-04-20 22:00:00,45.7,38.6,30.24,NW,305,0.0,0.0,76,0.00,,OVC044,0.00,VWS V14.01,2013-04-21 02:00:00,
2013-04-20 22:03:00,45.4,39.0,30.25,NW,305,0.0,0.0,78,0.00,,CLR,0.00,VWS V14.01,2013-04-21 02:03:00,
2013-04-20 22:08:00,45.1,38.7,30.25,NW,305,0.0,0.0,78,0.00,,CLR,0.00,VWS V14.01,2013-04-21 02:08:00,
2013-04-20 22:13:00,44.7,39.2,30.25,NW,305,0.0,0.0,81,0.00,,CLR,0.00,VWS V14.01,2013-04-21 02:13:00,
2013-04-20 22:19:00,44.4,38.6,30.25,NW,305,0.0,0.0,80,0.00,,CLR,0.00,VWS V14.01,2013-04-21 02:19:00,
2013-04-20 22:24:00,44.0,39.2,30.25,NW,305,0.0,0.0,83,0.00,,CLR,0.00,VWS V14.01,2013-04-21 02:24:00,
2013-04-20 22:28:00,43.7,38.9,30.25,NW,305,0.0,0.0,83,0.00,,CLR,0.00,VWS V14.01,2013-04-21 02:28:00,
2013-04-20 22:30:00,43.7,38.9,30.25,NW,305,0.0,0.0,83,0.00,,OVC044,0.00,VWS V14.01,2013-04-21 02:30:00,
2013-04-20 22:34:00,43.5,38.7,30.25,NW,305,0.0,0.0,83,0.00,,CLR,0.00,VWS V14.01,2013-04-21 02:34:00,
2013-04-20 22:39:00,43.3,38.8,30.25,NW,305,0.0,0.0,84,0.00,,CLR,0.00,VWS V14.01,2013-04-21 02:39:00,
2013-04-20 22:44:00,43.1,38.6,30.26,NW,305,0.0,0.0,84,0.00,,CLR,0.00,VWS V14.01,2013-04-21 02:44:00,
2013-04-20 22:49:00,42.8,38.9,30.26,NW,305,0.0,0.0,86,0.00,,CLR,0.00,VWS V14.01,2013-04-21 02:49:00,
2013-04-20 22:54:00,42.5,38.6,30.26,NW,305,0.0,0.0,86,0.00,,CLR,0.00,VWS V14.01,2013-04-21 02:54:00,
2013-04-20 22:59:00,42.3,38.7,30.26,NW,305,0.0,0.0,87,0.00,,CLR,0.00,VWS V14.01,2013-04-21 02:59:00,
2013-04-20 23:00:00,42.3,38.7,30.26,NW,305,0.0,0.0,87,0.00,,OVC044,0.00,VWS V14.01,2013-04-21 03:00:00,
2013-04-20 23:04:00,42.1,38.8,30.26,NW,305,0.0,0.0,88,0.00,,CLR,0.00,VWS V14.01,2013-04-21 03:04:00,
2013-04-20 23:09:00,41.9,38.6,30.26,NW,305,0.0,0.0,88,0.00,,CLR,0.00,VWS V14.01,2013-04-21 03:09:00,
2013-04-20 23:14:00,42.0,38.7,30.26,NW,305,0.0,0.0,88,0.00,,CLR,0.00,VWS V14.01,2013-04-21 03:14:00,
2013-04-20 23:19:00,42.0,38.7,30.27,NW,305,0.0,0.0,88,0.00,,CLR,0.00,VWS V14.01,2013-04-21 03:19:00,
2013-04-20 23:24:00,42.0,38.4,30.27,NW,305,0.0,0.0,87,0.00,,CLR,0.00,VWS V14.01,2013-04-21 03:24:00,
2013-04-20 23:29:00,42.0,38.4,30.27,NW,305,0.0,0.0,87,0.00,,CLR,0.00,VWS V14.01,2013-04-21 03:29:00,
2013-04-20 23:30:00,42.0,38.4,30.27,NW,305,0.0,0.0,87,0.00,,OVC044,0.00,VWS V14.01,2013-04-21 03:30:00,
2013-04-20 23:34:00,42.0,37.8,30.27,NW,305,0.0,0.0,85,0.00,,CLR,0.00,VWS V14.01,2013-04-21 03:34:00,
2013-04-20 23:39:00,42.1,38.2,30.26,NW,305,0.0,0.0,86,0.00,,CLR,0.00,VWS V14.01,2013-04-21 03:39:00,
2013-04-20 23:44:00,41.9,38.0,30.27,NW,305,0.0,0.0,86,0.00,,CLR,0.00,VWS V14.01,2013-04-21 03:44:00,
2013-04-20 23:49:00,41.6,38.0,30.27,NW,305,0.0,0.0,87,0.00,,CLR,0.00,VWS V14.01,2013-04-21 03:49:00,
2013-04-20 23:54:00,41.2,37.9,30.27,NW,305,0.0,0.0,88,0.00,,CLR,0.00,VWS V14.01,2013-04-21 03:54:00,
2013-04-20 23:59:00,41.0,38.0,30.27,NW,305,0.0,0.0,89,0.00,,CLR,0.00,VWS V14.01,2013-04-21 03:59:00,